| time (UTC) | temp F | wind direction | speed knots | gust knots | rain 1hr in | rain 24hr in | rain mn in | humidity % | barometer mb |
| 20260505123003 | 51 | 338 | 0.9 | 3.5 | 0.00 | 0.05 | 0.05 | 80 | 1022.1 |
| 20260505121604 | 51 | 332 | 1.7 | 7.8 | 0.00 | 0.05 | 0.05 | 79 | 1022.2 |
| 20260505120005 | 51 | 227 | 1.7 | 5.2 | 0.00 | 0.05 | 0.05 | 80 | 1022.3 |
| 20260505114603 | 51 | 355 | 0.9 | 7.0 | 0.00 | 0.05 | 0.05 | 80 | 1022.4 |
| 20260505113006 | 51 | 319 | 0.9 | 5.2 | 0.00 | 0.05 | 0.05 | 80 | 1022.3 |
| 20260505111606 | 51 | 346 | 1.7 | 5.2 | 0.00 | 0.05 | 0.05 | 80 | 1022.2 |
| 20260505101519 | 52 | 292 | 1.7 | 4.3 | 0.00 | 0.05 | 0.05 | 79 | 1022.2 |
| 20260505100004 | 52 | 315 | 1.7 | 7.8 | 0.00 | 0.05 | 0.05 | 79 | 1022.3 |
| 20260505094604 | 52 | 304 | 2.6 | 7.0 | 0.00 | 0.05 | 0.05 | 79 | 1022.4 |
| 20260505093004 | 52 | 308 | 1.7 | 5.2 | 0.00 | 0.05 | 0.05 | 79 | 1022.4 |
| 20260505091622 | 52 | 29 | 2.6 | 7.0 | 0.00 | 0.05 | 0.05 | 79 | 1022.3 |
| 20260505090016 | 52 | 321 | 1.7 | 7.0 | 0.00 | 0.05 | 0.05 | 80 | 1022.2 |
| 20260505084503 | 52 | 275 | 2.6 | 5.2 | 0.00 | 0.05 | 0.05 | 80 | 1022.1 |
| 20260505083003 | 52 | 290 | 2.6 | 7.0 | 0.00 | 0.05 | 0.05 | 80 | 1021.9 |
| 20260505081606 | 52 | 306 | 1.7 | 6.1 | 0.00 | 0.05 | 0.05 | 80 | 1021.7 |
| 20260505080011 | 52 | 327 | 2.6 | 7.8 | 0.00 | 0.05 | 0.05 | 80 | 1021.5 |
| 20260505074603 | 52 | 327 | 2.6 | 6.1 | 0.00 | 0.05 | 0.05 | 80 | 1021.4 |
| 20260505073008 | 52 | 313 | 0.9 | 7.0 | 0.00 | 0.05 | 0.05 | 79 | 1021.2 |
| 20260505071616 | 52 | 351 | 3.5 | 7.8 | 0.00 | 0.05 | 0.05 | 79 | 1021.0 |
| 20260505070003 | 52 | 310 | 2.6 | 7.8 | 0.00 | 0.05 | 0.05 | 79 | 1020.9 |
| 20260505064610 | 52 | 305 | 1.7 | 7.0 | 0.00 | 0.05 | 0.05 | 79 | 1020.8 |
| 20260505063004 | 53 | 323 | 2.6 | 7.8 | 0.00 | 0.05 | 0.05 | 79 | 1020.6 |
| 20260505060003 | 53 | 270 | 2.6 | 8.7 | 0.00 | 0.05 | 0.05 | 79 | 1020.6 |
| 20260505054607 | 53 | 333 | 1.7 | 6.1 | 0.00 | 0.05 | 0.05 | 78 | 1020.4 |
| 20260505053013 | 53 | 284 | 1.7 | 7.0 | 0.00 | 0.05 | 0.05 | 80 | 1020.1 |
| 20260505051503 | 53 | 292 | 1.7 | 7.0 | 0.00 | 0.05 | 0.05 | 80 | 1020.0 |
| 20260505050103 | 53 | 329 | 3.5 | 8.7 | 0.00 | 0.05 | 0.05 | 80 | 1019.9 |
| 20260505041606 | 53 | 284 | 3.5 | 8.7 | 0.00 | 0.05 | 0.05 | 80 | 1019.5 |
| 20260505040005 | 53 | 332 | 2.6 | 11.3 | 0.00 | 0.06 | 0.05 | 81 | 1019.4 |
| 20260505034602 | 53 | 311 | 3.5 | 9.6 | 0.00 | 0.06 | 0.05 | 80 | 1019.2 |
| 20260505033003 | 53 | 348 | 3.5 | 7.8 | 0.00 | 0.06 | 0.05 | 80 | 1019.2 |
| 20260505031603 | 53 | 340 | 3.5 | 9.6 | 0.00 | 0.06 | 0.05 | 80 | 1019.2 |
| 20260505030009 | 53 | 271 | 5.2 | 12.2 | 0.00 | 0.06 | 0.05 | 81 | 1019.2 |
| 20260505024503 | 53 | 269 | 3.5 | 11.3 | 0.00 | 0.06 | 0.05 | 80 | 1019.1 |
| 20260505023010 | 53 | 317 | 4.3 | 11.3 | 0.00 | 0.06 | 0.05 | 80 | 1019.0 |
| 20260505021503 | 54 | 307 | 3.5 | 9.6 | 0.00 | 0.06 | 0.05 | 81 | 1019.2 |
| 20260505020003 | 54 | 277 | 2.6 | 10.4 | 0.00 | 0.06 | 0.05 | 80 | 1019.3 |
| 20260505014611 | 54 | 325 | 5.2 | 12.2 | 0.00 | 0.06 | 0.05 | 82 | 1019.3 |
| 20260505011607 | 52 | 345 | 5.2 | 19.1 | 0.00 | 0.06 | 0.05 | 83 | 1019.4 |
| 20260505010017 | 53 | 355 | 4.3 | 15.6 | 0.00 | 0.06 | 0.05 | 83 | 1019.2 |
| 20260505004507 | 53 | 336 | 4.3 | 11.3 | 0.00 | 0.06 | 0.05 | 84 | 1019.0 |
| 20260505003115 | 53 | 320 | 5.2 | 13.9 | 0.00 | 0.06 | 0.05 | 84 | 1018.8 |
| 20260505001610 | 52 | 311 | 4.3 | 12.2 | 0.00 | 0.06 | 0.05 | 86 | 1018.8 |
| 20260505000007 | 52 | 296 | 6.1 | 13.9 | 0.00 | 0.06 | 0.05 | 86 | 1018.7 |
| 20260504234604 | 52 | 320 | 7.0 | 13.9 | 0.00 | 0.06 | 0.05 | 86 | 1018.5 |
| 20260504233006 | 53 | 298 | 4.3 | 12.2 | 0.00 | 0.06 | 0.05 | 87 | 1018.7 |
| 20260504231604 | 52 | 279 | 5.2 | 12.2 | 0.05 | 0.06 | 0.05 | 88 | 1018.5 |
| 20260504230105 | 51 | 344 | 5.2 | 9.6 | 0.05 | 0.06 | 0.05 | 88 | 1018.4 |
| 20260504224511 | 51 | 319 | 4.3 | 9.6 | 0.05 | 0.06 | 0.05 | 88 | 1018.2 |
| 20260504223014 | 51 | 284 | 3.5 | 12.2 | 0.05 | 0.06 | 0.05 | 88 | 1018.1 |
| 20260504221506 | 51 | 337 | 4.3 | 10.4 | 0.00 | 0.01 | 0.00 | 88 | 1017.7 |
| 20260504220006 | 51 | 294 | 3.5 | 11.3 | 0.00 | 0.01 | 0.00 | 88 | 1017.5 |
| 20260504214604 | 51 | 344 | 5.2 | 12.2 | 0.00 | 0.01 | 0.00 | 87 | 1017.3 |
| 20260504213021 | 50 | 19 | 4.3 | 10.4 | 0.00 | 0.01 | 0.00 | 87 | 1016.9 |
| 20260504211652 | 50 | 268 | 4.3 | 8.7 | 0.00 | 0.01 | 0.00 | 87 | 1016.6 |
| 20260504210004 | 50 | 273 | 5.2 | 12.2 | 0.00 | 0.01 | 0.00 | 87 | 1016.4 |
| 20260504204605 | 50 | 327 | 5.2 | 11.3 | 0.00 | 0.01 | 0.00 | 87 | 1016.1 |
| 20260504203003 | 50 | 355 | 6.1 | 11.3 | 0.00 | 0.01 | 0.00 | 86 | 1015.8 |
| 20260504201614 | 50 | 15 | 3.5 | 10.4 | 0.00 | 0.01 | 0.00 | 86 | 1015.7 |
| 20260504200006 | 51 | 299 | 4.3 | 11.3 | 0.00 | 0.01 | 0.00 | 86 | 1015.5 |
| 20260504194606 | 51 | 326 | 3.5 | 9.6 | 0.00 | 0.01 | 0.00 | 86 | 1015.3 |
| 20260504193003 | 51 | 296 | 3.5 | 13.0 | 0.00 | 0.01 | 0.00 | 86 | 1015.3 |
| 20260504191612 | 51 | 314 | 3.5 | 9.6 | 0.00 | 0.01 | 0.00 | 86 | 1015.1 |
| 20260504190004 | 51 | 297 | 2.6 | 8.7 | 0.00 | 0.02 | 0.00 | 86 | 1014.9 |
| 20260504184604 | 51 | 340 | 2.6 | 10.4 | 0.00 | 0.02 | 0.00 | 85 | 1014.8 |
| 20260504183011 | 51 | 344 | 3.5 | 11.3 | 0.00 | 0.02 | 0.00 | 85 | 1014.5 |
| 20260504181505 | 51 | 312 | 7.0 | 13.9 | 0.00 | 0.02 | 0.00 | 85 | 1014.4 |
| 20260504180004 | 52 | 272 | 6.1 | 13.9 | 0.00 | 0.02 | 0.00 | 84 | 1014.2 |
| 20260504174607 | 52 | 279 | 3.5 | 13.0 | 0.00 | 0.02 | 0.00 | 83 | 1014.1 |
| 20260504173005 | 52 | 294 | 5.2 | 10.4 | 0.00 | 0.02 | 0.00 | 83 | 1013.9 |
| 20260504171605 | 51 | 276 | 4.3 | 13.0 | 0.00 | 0.02 | 0.00 | 83 | 1013.7 |